Weather in Marianivka

Ukraine / Zhytomyr Region     50°18′17″N   27°52′24″E
temp.,
°C
wind,
m/s
gust,
m/s
humid.,
%
clouds,
%
prec.,
mm/h
press.,
hPa
HPBL,
m
27 september, mon
mon2700:00+9n238546 0.0 102336
03:00+8nne229117 0.0 102331
06:00+6ne24955 0.0 102472
09:00+8ene35815 0.0 1024276
12:00+13ene34550 0.0 1024912
15:00+15ne34490 0.0 10231211
18:00+13ene36600 0.0 1023299
21:00+8ene310800 0.0 1024232
28 september, tue
tue2800:00+6e38880 0.0 1025178
03:00+5e24920 0.0 102577
06:00+5e23905 0.0 102541
09:00+8e35765 0.0 1026209
12:00+13e45550 0.0 10261171
15:00+15ene4448100 0.0 10251765
18:00+12ene3555100 0.0 1026142
21:00+11ene3555100 0.0 1028121
29 september, wed
wed2900:00+10ene3768100 0.0 1029231
03:00+9ene2678100 0.0 1029182
06:00+9e3786100 0.0 1029247
09:00+9e4886100 0.1 1030368
12:00+11ese566865 0.0 1031800
15:00+13ese555384 0.1 10301363
18:00+12e475685 0.0 1030560
21:00+9ese511695 0.0 1031318
30 september, thu
thu3000:00+7ese511715 0.0 1032358
03:00+5ese310792 0.0 1032238
06:00+4se39840 0.0 1032201
09:00+7se48694 0.0 1032296
12:00+13sse56495 0.0 10311075
15:00+15sse56414 0.0 10301448
18:00+13se36520 0.0 1030132
21:00+8se37585 0.0 1031106
1 october, fri
fri100:00+7se38565 0.0 1032143
03:00+6sse385984 0.0 1032128
06:00+5se3760100 0.0 1032131
09:00+8sse3854100 0.0 1032228
12:00+13sse5739100 0.0 1031764
15:00+15sse5633100 0.0 10301274
18:00+12se3546100 0.0 1029110
21:00+9se3753100 0.0 1030118